Skip Page Navigation
NASA JPL Caltech
NASA Logo - Jet Propulsion Laboratory + View the NASA Portal
+ Near-Earth Object (NEO) Program
Search JPL
JPL Home Earth Solar System Stars & Galaxies Technology
JPL Solar System Dynamics
BODIES ORBITS EPHEMERIDES TOOLS PHYSICAL DATA DISCOVERY FAQ SITE MAP
JPL Small-Body Database Browser
Search: [ help ]  
52334 Oberammergau (1992 FS3)
Classification: Main-belt Asteroid          SPK-ID: 2052334
Ephemeris | Orbit Diagram | Orbital Elements | Physical Parameters | Discovery Circumstances | Close-Approach Data ]

[ show orbit diagram ]
Orbital Elements at Epoch 2457600.5 (2016-Jul-31.0) TDB
Reference: JPL 15 (heliocentric ecliptic J2000)
 Element Value Uncertainty (1-sigma)   Units 
e .1258090270892447 5.6669e-08  
a 2.404825263409082 1.6202e-08 au
q 2.102276536699949 1.3434e-07 au
i 3.020296202266866 6.0878e-06 deg
node 30.50830117989802 0.00011765 deg
peri 69.71179310865826 0.00012128 deg
M 260.1103504407005 2.7451e-05 deg
tp 2457978.456400327760
(2017-Aug-12.95640033)
0.00010415 JED
period 1362.146175487572
3.73
1.3766e-05
3.769e-08
d
yr
n .2642888160451211 2.671e-09 deg/d
Q 2.707373990118215 1.8241e-08 au
  Orbit Determination Parameters
   # obs. used (total)      565  
   data-arc span      8506 days (23.29 yr)  
   first obs. used      1992-03-30  
   last obs. used      2015-07-14  
   planetary ephem.      DE431  
   SB-pert. ephem.      SB431-BIG16  
   condition code      0  
   fit RMS      .5661  
   data source      ORB  
   producer      Otto Matic  
   solution date      2016-Feb-25 23:22:05  

Additional Information
 Earth MOID = 1.11981 au 
 Jupiter MOID = 2.43178 au 
 T_jup = 3.511 
[ show covariance matrix ]

Ephemeris | Orbit Diagram | Orbital Elements | Physical Parameters | Discovery Circumstances | Close-Approach Data ]

Physical Parameter Table
Parameter Symbol Value Units Sigma Reference Notes
absolute magnitude H 15.3 mag n/a MPO270399  

52334 Oberammergau           Discovered 1992 Mar. 30 by F. Börngen at Tautenburg.
Oberammergau, situated in the Bavarian Alps, is the festival place of a famous Passion Play, according to tradition held every 10 years since 1634. It is produced entirely with local villagers taking all the parts and singing in the chorus.
NOTE: some special characters may not display properly (any characters within {} are an attempt to place the proper accent above a character)
Reference: 20031110/MPCPages.arcLast Updated: 2003-11-12

[ show close-approach data ]
Alternate Designations
 1992 FS3 = 1996 HJ9 = 1996 HX26 = 2001 QJ217 
Ephemeris | Orbit Diagram | Orbital Elements | Physical Parameters | Discovery Circumstances | Close-Approach Data ]
ABOUT SSD CREDITS/AWARDS PRIVACY/COPYRIGHT GLOSSARY LINKS
FirstGov 2016-May-02 03:38 UT
(server date/time)  
NASA Home Page
Site Manager:   Ryan S. Park
Webmaster  Alan B. Chamberlin